Simultaneous Nadir Overpasses (SNOs) Predictions

Prediction of SNOs between GOES-16 and METOP-C Satellite Orbit:

Table of predicted SNOs for the next 14.0 days since TLE Epoch: 8/12/2023
Index Date Time (GOES-16) GOES-16 Lat,Lon METOP-C Lat,Lon Distance(km) Time Diff (sec)
1 08/12/2023 14:34:29 -0.01, -75.22 0.28, -76.51 147.25 80
2 08/13/2023 14:16:32 -0.01, -75.22 -0.82, -71.52 421.00 80
3 08/15/2023 02:35:35 0.02, -75.22 -0.17, -76.14 104.75 80
4 08/16/2023 02:12:17 0.02, -75.23 0.93, -71.15 464.22 80
5 08/17/2023 14:33:53 -0.01, -75.25 0.12, -75.73 54.83 80
6 08/20/2023 02:32:18 0.02, -75.28 0.00, -75.36 9.53 80
7 08/22/2023 14:27:56 -0.01, -75.33 -0.07, -74.95 42.37 80
8 08/24/2023 02:49:40 0.01, -75.34 -0.91, -79.57 481.39 80
9 08/25/2023 02:26:22 0.00, -75.36 0.20, -74.59 88.50 80
